sat.trackr.live / text

‹ back to catalog

STARLINK-11283 [DTC]

NORAD 60993 · 2024-158D

PAYLOAD ACTIVE UNKNOWN

§ Identity

Operator
Country
US
Launch date
2024-09-05
Launch site
AFETR
Launch vehicle
Mass (kg)
RCS (m²)

Purposes: comms

External: N2YO · Heavens-Above · Gunter

§ Orbital elements

Epoch: 2026-09-21T08:52:50.372544Z

Period
91.74 min
Inclination
53.1582°
Eccentricity
0.0000592
Mean motion
15.69709423 rev/d
Perigee alt
359.3 km
Apogee alt
360.1 km
Semi-major
6,737.9 km
B*
4.4880e-6
RAAN
36.9835°
Arg perigee
74.6166°
Mean anomaly
285.4918°
Rev number
11,832

§ Raw data

STARLINK-11283 [DTC]1 60993U 24158D   26264.37002746 -.00000044  00000+0  44880-5 0  99932 60993  53.1582  36.9835 0000592  74.6166 285.4918 15.69709423118321

JSON: /api/v1/satellites/60993 · /tle

For live sub-satellite position, see the globe view (requires WebGL).

§ Visibility from observer

Set your observer location to see the next 7 days of passes ≥ 10°. The values pass through the URL so the page stays shareable.

No JS? Fill the form by hand. The geolocation button needs JavaScript.